[[{"header":{"parameterUnit":"m.s-1","parameterCategory":1,"la1":30.2992,"la2":30.254,"lo1":-89.0895,"lo2":-89.0443,"dy":0.0025,"dx":0.0025,"nx":19,"ny":19,"refTime":"2026-04-03T09:00:00:Z","depth":0,"parameterNumber":2,"parameterNumberName":"U-component_of_WINDS"},"data":[0,0,0,-3.0769,-3.077,-3.0812,-3.0812,-3.0879,-3.088,0,0,0,0,0,0,0,0,0,0,0,-3.0765,-3.0766,-3.0769,-3.077,-3.0812,-3.0812,-3.0879,-3.088,0,0,0,0,0,0,0,0,0,0,0,-3.0765,-3.0765,-3.0766,-3.077,-3.0812,-3.0812,-3.0879,-3.0842,0,0,0,0,0,0,0,0,0,0,-3.0799,-3.0804,-3.0765,-3.0766,-3.0771,-3.0812,-3.0812,-3.084,-3.0845,-3.0866,0,-3.0888,0,-3.0885,-3.0885,-3.0886,0,0,0,-3.0764,-3.08,-3.0804,-3.0767,-3.0771,-3.0812,-3.0791,-3.0843,-3.0848,-3.0872,-3.0888,-3.089,-3.0886,-3.0886,-3.0886,-3.1032,-3.1033,0,0,-3.0761,-3.0777,-3.0801,-3.0808,-3.0803,-3.079,-3.0793,-3.0845,-3.0864,-3.0889,-3.0892,-3.0887,-3.0886,-3.0887,-3.1031,-3.1032,0,0,0,-3.0759,-3.0775,-3.0778,-3.0805,-3.0812,-3.0792,-3.0795,-3.0862,-3.0861,-3.0892,-3.0888,-3.0887,-3.0888,-3.103,-3.1031,-3.1094,0,0,0,-3.0757,-3.0774,-3.0777,-3.0787,-3.0811,-3.0838,-3.081,-3.0858,-3.0863,-3.0888,-3.0887,-3.0889,-3.1029,-3.103,-3.109,-3.1121,0,0,0,-3.0759,-3.0774,-3.0783,-3.0788,-3.0806,-3.0836,-3.0839,-3.0859,-3.0861,-3.0886,-3.0889,-3.1028,-3.103,-3.1086,-3.1115,-3.1163,0,0,0,-3.0765,-3.0838,-3.0784,-3.0864,-3.0806,-3.0875,-3.0838,-3.0889,-3.0918,-3.0887,-3.1029,-3.1031,-3.1085,-3.1111,-3.116,-3.1206,-3.1227,0,0,-3.0866,-3.0851,-3.0897,-3.085,-3.0933,-3.0868,-3.096,-3.0971,-3.096,-3.1008,-3.1012,-3.1091,-3.1114,-3.1163,-3.1342,-3.1359,0,0,0,-3.0934,-3.0966,-3.0985,-3.1014,-3.1025,-3.1037,-3.1033,-3.1038,-3.1078,-3.0988,-3.1122,-3.1135,-3.1163,-3.1184,-3.1199,-3.1221,-3.1042,-3.1042,-3.1041,-3.1096,-3.1078,-3.1153,-3.114,-3.1168,-3.1164,-3.1185,-3.119,-3.1163,-3.1195,-3.1209,-3.132,-3.1346,-3.1357,-3.138,-3.1233,-3.1233,-3.1233,-3.1234,-3.1241,-3.1284,-3.1248,-3.1307,-3.1287,-3.1336,-3.1335,-3.1315,-3.1357,-3.1308,-3.1331,-3.1278,-3.1376,-3.1396,-3.1238,-3.1237,-3.1237,-3.1236,-3.1236,-3.1345,-3.1362,-3.1367,-3.1407,-3.144,-3.1424,-3.1467,-3.1448,-3.143,-3.1453,-3.1466,-3.1464,-3.146,-3.1461,-3.1461,-3.1462,-3.1462,-3.1462,-3.1462,-3.145,-3.1454,-3.1492,-3.1511,-3.1527,-3.1546,-3.1544,-3.1559,-3.1571,-3.1553,-3.1553,-3.1523,-3.1389,-3.1356,-3.1468,-3.1467,-3.1466,-3.1466,-3.1466,-3.1602,-3.1565,-3.1624,-3.1641,-3.1662,-3.1695,-3.1671,-3.1704,-3.1713,-3.1735,-3.17,-3.1605,-3.1588,-3.1577,-3.1549,-3.1704,-3.1704,-3.1704,-3.1704,-3.1689,-3.1679,-3.1736,-3.1763,-3.1787,-3.1772,-3.184,-3.1839,-3.1832,-3.1837,-3.1812,-3.1774,-3.1763,-3.1752,-3.1737,-3.171,-3.1903,-3.1904,-3.1904,-3.1781,-3.1772,-3.1834,-3.1827,-3.1842,-3.1856,-3.1919,-3.1952,-3.1937,-3.1912,-3.184,-3.1832,-3.177,-3.1751,-3.1723,-3.1699,-3.165,0,0]},{"header":{"parameterUnit":"m.s-1","parameterCategory":1,"la1":30.2992,"la2":30.254,"lo1":-89.0895,"lo2":-89.0443,"dy":0.0025,"dx":0.0025,"nx":19,"ny":19,"refTime":"2026-04-03T09:00:00:Z","depth":0,"parameterNumber":3,"parameterNumberName":"V-component_of_WINDS"},"data":[0,0,0,2.9829,2.9829,2.9847,2.9847,2.9883,2.9884,0,0,0,0,0,0,0,0,0,0,0,2.9831,2.9832,2.9829,2.9829,2.9847,2.9847,2.9883,2.9884,0,0,0,0,0,0,0,0,0,0,0,2.9831,2.9832,2.9832,2.9829,2.9847,2.9847,2.9883,2.9865,0,0,0,0,0,0,0,0,0,0,2.9845,2.9855,2.9832,2.9832,2.983,2.9847,2.9847,2.9864,2.9866,2.9881,0,2.9896,0,2.9891,2.9887,2.9887,0,0,0,2.9823,2.9853,2.9851,2.9832,2.983,2.9847,2.9837,2.9865,2.9867,2.9884,2.9896,2.9897,2.9891,2.9887,2.9887,2.9994,2.9995,0,0,2.9822,2.9838,2.985,2.9853,2.9851,2.9837,2.9838,2.9866,2.9881,2.9896,2.9898,2.9892,2.9887,2.9888,2.9994,2.9995,0,0,0,2.9824,2.9838,2.9835,2.9852,2.9854,2.9838,2.9839,2.9879,2.9877,2.9898,2.9892,2.9888,2.9888,2.9993,2.9994,3.0049,0,0,0,2.9823,2.9839,2.9835,2.9845,2.9854,2.9867,2.9852,2.9875,2.9878,2.9892,2.9888,2.9889,2.9992,2.9993,3.0046,3.0073,0,0,0,2.9827,2.9839,2.9845,2.9846,2.9854,2.9866,2.9865,2.9875,2.9875,2.9887,2.9889,2.9991,2.9993,3.0043,3.0068,3.0107,0,0,0,2.9837,2.9892,2.9846,2.9905,2.9854,2.9901,2.9865,2.9898,2.9916,2.9888,2.9992,2.9994,3.0042,3.0065,3.0104,3.0144,3.0161,0,0,2.9915,2.9902,2.9936,2.9895,2.9954,2.9896,2.9964,2.9963,2.9949,2.998,2.9983,3.0047,3.0067,3.0106,3.0254,3.0269,0,0,0,2.9966,2.9991,3.0003,3.0021,3.0023,3.0028,3.0016,3.0016,3.0042,2.9968,3.0071,3.0082,3.0105,3.0123,3.0135,3.0154,3.0003,3.0002,3.0002,3.01,3.0081,3.0136,3.012,3.0138,3.0126,3.0139,3.0138,3.0111,3.0136,3.0145,3.0237,3.0259,3.0268,3.0288,3.0164,3.0164,3.0164,3.0164,3.0215,3.0247,3.0213,3.0255,3.0234,3.0269,3.0261,3.0241,3.0271,3.0228,3.0247,3.0203,3.0285,3.0301,3.0168,3.0167,3.0167,3.0167,3.0166,3.0301,3.0313,3.0314,3.034,3.0362,3.0343,3.0374,3.0353,3.0333,3.0352,3.036,3.0359,3.0357,3.0357,3.0358,3.0358,3.0358,3.0359,3.0359,3.039,3.0389,3.0418,3.0427,3.0437,3.0448,3.0439,3.0448,3.0453,3.0436,3.0436,3.0408,3.0296,3.0269,3.0364,3.0363,3.0362,3.0362,3.0361,3.0514,3.0484,3.0528,3.0539,3.0549,3.0574,3.0548,3.0569,3.0574,3.059,3.0559,3.0479,3.0463,3.0454,3.0431,3.0562,3.0562,3.0562,3.0562,3.0588,3.0578,3.0621,3.064,3.0655,3.0637,3.069,3.0684,3.0672,3.0675,3.0653,3.0621,3.0612,3.0601,3.0588,3.0567,3.073,3.073,3.073,3.0664,3.0656,3.0704,3.0694,3.0701,3.0708,3.0757,3.078,3.076,3.0736,3.0676,3.0669,3.0617,3.0601,3.0576,3.0556,3.0516,0,0]}]]